Regional Weather Roundup
Issued by NWS

Home | Current Version | Previous Version | Graphics & Text | Print | Product List | Glossary On
Versions: 1 2 3 4 5 6 7 8 9 10 11 12 13 14 15 16 17 18 19 20 21 22 23 24 25 26 27
000
ASUS45 KPSR 181610
RWRAZ

ARIZONA HOURLY REGIONAL WEATHER ROUNDUP
NATIONAL WEATHER SERVICE PHOENIX AZ
900 AM MST SAT NOV 18 2017

NOTE: FAIR INDICATES FEW OR NO CLOUDS BELOW 12,000 FEET WITH NO
SIGNIFICANT WEATHER AND/OR OBSTRUCTIONS TO VISIBILITY.

AZZ001>003-036-181700-
NORTHWEST ARIZONA

CITY           SKY/WX    TMP DP  RH WIND       PRES   REMARKS
BULLHEAD CITY  SUNNY     57  18  21 N28G37    30.27R
KINGMAN        SUNNY     46  19  34 N8        30.31R
$$

AZZ004>008-015-016-018-181700-
NORTH CENTRAL ARIZONA

CITY           SKY/WX    TMP DP  RH WIND       PRES   REMARKS
GRAND CANYON   SUNNY     35   9  33 E17       30.36R WCI  25
WILLIAMS       SUNNY     36  18  48 SE12      30.32S WCI  27
PRESCOTT       SUNNY     40  28  62 NW5       30.30R
FLAGSTAFF      SUNNY     33   4  29 E14G24    30.36R WCI  23
PAYSON           N/A     46  25  42 E9        30.29S
PAGE           SUNNY     40  13  33 E5        30.42R
$$

AZZ009>014-017-181700-
NORTHEAST ARIZONA

CITY           SKY/WX    TMP DP  RH WIND       PRES   REMARKS
WINSLOW        SUNNY     40  16  37 N5        30.41R
SAINT JOHNS    SUNNY     39  24  55 N7        30.35R WCI  34
WINDOW ROCK    SUNNY     32  14  47 N8        30.37R WCI  25
SHOW LOW       SUNNY     36  21  55 NE8       30.36S WCI  29
$$

AZZ540-542>544-546-548-181700-
GREATER PHOENIX AREA

CITY           SKY/WX    TMP DP  RH WIND       PRES   REMARKS
PHOENIX        MOSUNNY   62  42  47 SW6       30.15R
BUCKEYE        SUNNY     63  54  72 S5        30.15R
LUKE AFB       SUNNY     66  27  23 N20       30.14R
DEER VALLEY    SUNNY     64  27  24 N14G22    30.15R
SCOTTSDALE     SUNNY     68  33  27 NE7       30.16R
MESA-FALCON    SUNNY     64  36  34 N15       30.15R
MESA-GATEWAY   SUNNY     63  39  42 SW5       30.15R
CHANDLER       SUNNY     66  36  32 N8        30.14R
$$

AZZ539-553-181700-
SOUTHWEST MARICOPA COUNTY AND PINAL COUNTY

CITY           SKY/WX    TMP DP  RH WIND       PRES   REMARKS
CASA GRANDE    NOT AVBL
$$

AZZ503-504-507>509-181700-
SOUTHEAST ARIZONA

CITY           SKY/WX    TMP DP  RH WIND       PRES   REMARKS
TUCSON         SUNNY     61  39  44 MISG      30.17R
DAVIS-MONTHAN  SUNNY     62  40  45 E5        30.15R
RYAN FIELD     SUNNY     61  39  44 E5        30.17
NOGALES        SUNNY     56  32  40 CALM      30.19R
SIERRA VISTA   PTSUNNY   60  39  44 CALM      30.25R
DOUGLAS        MOSUNNY   58  34  40 NW5       30.22R
SAFFORD        SUNNY     59  34  39 NW7       30.19R
$$

AZZ532-181700-
SOUTHWEST ARIZONA

CITY           SKY/WX    TMP DP  RH WIND       PRES   REMARKS
YUMA           SUNNY     68  21  16 N14       30.14R
$$

CAZ041-043-047-048-061-525>527-560>570-181700-
SOUTHERN CALIFORNIA

CITY           SKY/WX    TMP DP  RH WIND       PRES   REMARKS
DOWNTOWN L.A.  SUNNY     60  52  74 CALM      30.15R
L.A. AIRPORT   MOSUNNY   62  53  72 N5        30.16R
SAN DIEGO      MOSUNNY   60  51  72 CALM      30.16R
BURBANK        SUNNY     59  44  57 VRB3      30.16R
ONTARIO        SUNNY     59  57  93 CALM      30.15R FOG
RIVERSIDE      SUNNY     61  48  62 E6        30.16R
PALM SPRINGS   SUNNY     70  21  15 VRB7      30.21R
EL CENTRO NAS  SUNNY     63  44  50 CALM      30.19R
IMPERIAL       SUNNY     62  48  60 CALM      30.17R
BLYTHE         SUNNY     63  17  17 N17       30.21R
NEEDLES        SUNNY     59  21  23 N21       30.28R
$$

NVZ020-UTZ003-181700-
SOUTHERN NEVADA-UTAH

CITY           SKY/WX    TMP DP  RH WIND       PRES   REMARKS
LAS VEGAS      SUNNY     50  17  27 SE7       30.37R
SALT LAKE CITY MOSUNNY   33  21  61 SE9       30.46S WCI  25
$$

NMZ009-TXZ055-181700-
NEW MEXICO-WEST TEXAS

CITY           SKY/WX    TMP DP  RH WIND       PRES   REMARKS
ALBUQUERQUE    MOSUNNY   39   9  29 N14       30.36R WCI  31
EL PASO        MOSUNNY   62  35  36 N22       30.19R
$$


........................KEY........................
SKY/WX - SKY CONDITION/WEATHER
TMP    - TEMPERATURE IN FAHRENHEIT
DP     - DEW POINT IN FAHRENHEIT
RH     - RELATIVE HUMIDITY IN PERCENT
WIND   - DIRECTION AND SPEED IN MILES PER HOUR (MPH)
VRB    - VARIABLE WIND DIRECTION
PRES   - MEAN SEA LEVEL PRESSURE IN INCHES OF MERCURY
         F - FALLING PRESSURE   R - RISING PRESSURE
         S - STEADY PRESSURE
VSB    - VISIBILITY IN MILES
HX     - HEAT INDEX IN FAHRENHEIT
WCI    - WIND CHILL INDEX IN FAHRENHEIT
TC     - TEMPERATURE IN CELSIUS WHICH IS ALSO KNOWN AS
         TEMPERATURE IN CENTIGRADE
AFB    - AIR FORCE BASE
         LUKE AFB IS LUKE AIR FORCE BASE
         DAVIS-MONTHAN IS DAVIS-MONTHAN AIR FORCE BASE
NAS    - NAVAL AIR STATION
         EL CENTRO NAS IS EL CENTRO NAVAL AIR STATION
N/A    - NOT AVAILABLE





USA.gov is the U.S. government's official web portal to all federal, state and local government web resources and services.